{"data":{"norad_id":55936,"intl_designator":"2023-037Y","name":"STARLINK-5882","alt_names":[],"object_type":"PAYLOAD","status":"ACTIVE","operator":null,"country":"US","launch_date":"2023-03-17","launch_site_code":"AFWTR","launch_vehicle":null,"mission":null,"orbit_class":"UNKNOWN","rcs_meters":null,"size_class":null,"mass_kg":null,"dimensions":null,"purposes":["comms"],"wikipedia_slug":null,"has_3d_model":false,"image_url":null,"decayed_at":null,"tle_current":{"epoch":"2026-09-20T01:41:44.143584Z","epoch_age_seconds":143289,"freshness":"FRESH","line1":"1 55936U 23037Y   26263.07064981  .00000498  00000+0  49564-4 0  9999","line2":"2 55936  69.9990 134.1899 0002639 270.5072  89.5784 14.98330735193591","mean_motion":14.98330735,"eccentricity":0.0002639,"inclination_deg":69.999,"raan_deg":134.1899,"arg_perigee_deg":270.5072,"mean_anomaly_deg":89.5784,"bstar":4.9564e-5,"rev_number":19359,"period_min":96.106951980799,"perigee_km":570.21946271438,"apogee_km":573.88777332257,"semimajor_km":6950.1906180185,"source":"CELESTRAK","updated_at":"2026-09-21T09:00:33.326708Z"}}}